Location: Caltech
(34.1382°N, 118.1253°W)
Time: 13:56:37
(UTC-07:00)

Sapphire - Visible Passes

Search period start: 29 August 2015 00:00
Search period end: 08 September 2015 00:00
Orbit: 788 x 794 km, 67.1° (Epoch: 29 August)

Date Brightness Start Highest point End Pass type
(mag) Time Alt. Az. Time Alt. Az. Time Alt. Az.
29 Aug ? 02:22:39 17° NE 02:22:39 17° NE 02:23:53 10° NE visible
29 Aug ? 04:03:24 20° NW 04:03:24 20° NW 04:06:24 10° N visible
30 Aug ? 01:53:02 10° NE 01:53:02 10° NE 01:53:02 10° NE visible
30 Aug ? 03:33:46 22° NNW 03:33:46 22° NNW 03:36:15 10° N visible
31 Aug ? 03:04:06 20° N 03:04:06 20° N 03:05:59 10° N visible
01 Sep ? 02:34:25 17° NNE 02:34:25 17° NNE 02:35:35 10° NNE visible
02 Sep ? 02:04:42 12° NNE 02:04:42 12° NNE 02:05:07 10° NNE visible
03 Sep ? 03:15:41 11° NNW 03:15:41 11° NNW 03:15:59 10° NNW visible
04 Sep ? 02:45:55 11° N 02:45:55 11° N 02:46:09 10° N visible
